TimeAKDT,TemperatureF,Dew PointF,Humidity,Sea Level PressureIn,VisibilityMPH,Wind Direction,Wind SpeedMPH,Gust SpeedMPH,PrecipitationIn,Events,Conditions,WindDirDegrees,DateUTC
12:56 AM,8.1,-0.9,67,30.43,10.0,Variable,3.5,-,N/A,,Clear,0,2014-03-24 08:56:00
1:56 AM,6.1,-2.9,67,30.43,10.0,ENE,9.2,-,N/A,,Clear,70,2014-03-24 09:56:00
2:56 AM,3.0,-4.9,70,30.43,10.0,NE,8.1,-,N/A,,Clear,50,2014-03-24 10:56:00
3:56 AM,2.1,-6.9,66,30.42,10.0,ENE,9.2,-,N/A,,Clear,60,2014-03-24 11:56:00
4:56 AM,1.0,-6.0,72,30.42,10.0,NE,8.1,-,N/A,,Clear,50,2014-03-24 12:56:00
5:56 AM,-0.9,-8.0,72,30.41,10.0,ENE,8.1,-,N/A,,Clear,60,2014-03-24 13:56:00
6:56 AM,1.0,-6.0,72,30.41,10.0,ESE,4.6,-,N/A,,Clear,110,2014-03-24 14:56:00
7:56 AM,6.1,-4.0,63,30.40,10.0,ESE,5.8,-,N/A,,Clear,120,2014-03-24 15:56:00
8:56 AM,-0.9,-8.9,69,30.39,10.0,Calm,Calm,-,N/A,,Clear,0,2014-03-24 16:56:00
9:56 AM,-4.0,-9.9,76,30.39,10.0,NE,5.8,-,N/A,,Clear,40,2014-03-24 17:56:00
10:56 AM,-0.9,-8.9,69,30.38,10.0,NNE,8.1,-,N/A,,Clear,20,2014-03-24 18:56:00
11:56 AM,3.0,-4.9,70,30.38,10.0,Calm,Calm,-,N/A,,Clear,0,2014-03-24 19:56:00
12:56 PM,-0.4,-5.8,78,30.36,-9999.0,Calm,Calm,-,N/A,,Clear,0,2014-03-24 20:56:00
1:56 PM,4.1,-2.9,73,30.36,-9999.0,Calm,Calm,-,N/A,,Clear,0,2014-03-24 21:56:00
2:56 PM,7.2,-0.9,69,30.35,-9999.0,Calm,Calm,-,N/A,,Clear,0,2014-03-24 22:56:00
3:56 PM,7.2,1.0,76,30.34,10.0,Calm,Calm,-,N/A,,Clear,0,2014-03-24 23:56:00
4:56 PM,7.2,1.0,76,30.32,10.0,Calm,Calm,-,N/A,,Clear,0,2014-03-25 00:56:00
5:56 PM,8.1,3.0,80,30.30,10.0,North,4.6,-,N/A,,Clear,350,2014-03-25 01:56:00
6:56 PM,8.1,2.1,77,30.30,10.0,NE,5.8,-,N/A,,Clear,40,2014-03-25 02:56:00
7:56 PM,9.1,4.1,80,30.28,10.0,Calm,Calm,-,N/A,,Clear,0,2014-03-25 03:56:00
8:56 PM,6.1,1.0,80,30.27,10.0,Calm,Calm,-,N/A,,Clear,0,2014-03-25 04:56:00
9:56 PM,5.0,-1.8,73,30.25,10.0,NNE,3.5,-,N/A,,Clear,30,2014-03-25 05:56:00
10:56 PM,8.1,-0.9,67,30.24,10.0,Calm,Calm,-,N/A,,Clear,0,2014-03-25 06:56:00
11:56 PM,9.1,1.0,70,30.23,10.0,Calm,Calm,-,N/A,,Clear,0,2014-03-25 07:56:00